カタログに戻る

FENGYUN 1C DEB

運用中PO
NORAD 31562·DEBRIS·🇨🇳 China

打ち上げ May 10, 1999 から Taiyuan Satellite Launch Center

Loading…

次のパス (今後24時間)

TLE

最新Source: Space-Track

元期: Sep 14, 2026, 10:30 UTC

1 31562U 99025BZD 26257.43785048  .00001627  00000-0  48744-3 0  9999
2 31562  99.2825  78.0033 0055901 191.8480 168.1396 14.43465231  9495

AllMySatでFENGYUN 1C DEBをリアルタイム追跡

Download on the App Store